St. Paul, MN

8:23 PM CDT on August 22, 2017 (GMT -0500)
Saint Paul Downtown-Holman

Weather History for KSTP - November, 2012

Change the Weather History Date:

Sunday, November 4, 2012

  Actual Average Record
Temperature  
Mean Temperature 36 °F -  
Max Temperature 45 °F 46 °F 71 °F (2008)
Min Temperature 28 °F 31 °F 1 °F (2010)
Degree Days  
Heating Degree Days 28    
Moisture  
Dew Point 30 °F    
Average Humidity 71    
Maximum Humidity 89    
Minimum Humidity 60    
Precipitation  
Precipitation 0.00 in - - ()
Sea Level Pressure  
Sea Level Pressure 30.22 in    
Wind  
Wind Speed 2 mph (ESE)    
Max Wind Speed 8 mph    
Max Gust Speed -    
Visibility 10 miles    
Events      
Averages and records for this station are not official NWS values.
T = Trace of Precipitation, MM = Missing Value Source: NWS Daily Summary

Daily Weather History Graph

Daily Weather History Graph

Search for Another Location

Airport or City:

Trip Planner

Search our weather history database for the weather conditions in past years. The results will help you decide how hot, cold, wet, or windy it might be!

Date:

Astronomy

Nov. 04, 2012 Rise Set
Actual Time 6:55 AM CST 4:55 PM CST
Civil Twilight 6:24 AM CST 5:26 PM CST
Nautical Twilight 5:49 AM CST 6:01 PM CST
Astronomical Twilight 5:15 AM CST 6:35 PM CST
Moon 9:32 PM CST (11/4) 11:42 AM CST (11/4)
Length of Visible Light 11h 02m
Length of Day
10h 00m
Waning Gibbous, 72% of the Moon is Illuminated
Nov 4
Waning Gibbous
Nov 6
Last Quarter
Nov 13
New
Nov 20
First Quarter
Nov 28
Full

Hourly Weather History & Observations

Time (CST) Temp. Windchill Dew Point Humidity Pressure Visibility Wind Dir Wind Speed Gust Speed Precip Events Conditions
12:53 AM 39.9 °F - 28.0 °F 63% 30.25 in 10.0 mi Calm Calm - N/A   Overcast
1:53 AM 37.9 °F - 28.0 °F 68% 30.25 in 10.0 mi Calm Calm - N/A   Overcast
1:53 AM 35.1 °F - 28.0 °F 76% 30.25 in 10.0 mi Calm Calm - N/A   Clear
2:53 AM 35.1 °F - 28.0 °F 76% 30.24 in 10.0 mi Calm Calm - N/A   Clear
3:53 AM 30.9 °F - 26.1 °F 82% 30.25 in 10.0 mi Calm Calm - N/A   Clear
4:53 AM 28.9 °F - 25.0 °F 85% 30.25 in 10.0 mi Calm Calm - N/A   Clear
5:53 AM 28.9 °F - 26.1 °F 89% 30.25 in 9.0 mi Calm Calm - N/A   Clear
6:53 AM 28.9 °F - 26.1 °F 89% 30.26 in 9.0 mi Calm Calm - N/A   Clear
7:53 AM 32.0 °F - 28.0 °F 85% 30.26 in 8.0 mi Calm Calm - N/A   Clear
8:53 AM 36.0 °F - 28.9 °F 76% 30.25 in 10.0 mi Calm Calm - N/A   Clear
9:53 AM 39.0 °F - 30.0 °F 70% 30.24 in 10.0 mi Calm Calm - N/A   Mostly Cloudy
10:53 AM 42.1 °F 38.4 °F 30.9 °F 65% 30.24 in 10.0 mi SSE 5.8 mph - N/A   Mostly Cloudy
11:53 AM 44.1 °F 40.1 °F 33.1 °F 65% 30.22 in 10.0 mi South 6.9 mph - N/A   Overcast
12:53 PM 44.1 °F 41.5 °F 33.1 °F 65% 30.19 in 10.0 mi South 4.6 mph - N/A   Overcast
1:53 PM 45.0 °F 41.8 °F 33.1 °F 63% 30.18 in 10.0 mi SSE 5.8 mph - N/A   Overcast
2:53 PM 45.0 °F 41.8 °F 33.1 °F 63% 30.17 in 10.0 mi SE 5.8 mph - N/A   Overcast
3:53 PM 45.0 °F 42.6 °F 33.1 °F 63% 30.18 in 10.0 mi East 4.6 mph - N/A   Overcast
4:53 PM 45.0 °F 41.8 °F 33.1 °F 63% 30.17 in 10.0 mi East 5.8 mph - N/A   Overcast
5:53 PM 45.0 °F 41.8 °F 33.1 °F 63% 30.18 in 10.0 mi East 5.8 mph - N/A   Overcast
6:53 PM 44.1 °F 40.8 °F 33.1 °F 65% 30.18 in 10.0 mi East 5.8 mph - N/A   Overcast
7:53 PM 45.0 °F 40.6 °F 32.0 °F 60% 30.18 in 10.0 mi East 8.1 mph - N/A   Overcast
8:53 PM 44.1 °F 40.8 °F 33.1 °F 65% 30.18 in 9.0 mi East 5.8 mph - N/A   Overcast
9:53 PM 44.1 °F 39.5 °F 33.1 °F 65% 30.18 in 9.0 mi East 8.1 mph - 0.00 in   Overcast
10:53 PM 43.0 °F 38.2 °F 34.0 °F 71% 30.18 in 9.0 mi ENE 8.1 mph - 0.00 in   Overcast